Location: Newark
(45.9456°N, 15.4064°E)
Time: 18:55:32
(UTC+00:00)

Courier 1B - Visible Passes

Search period start: 20 January 2020 00:00
Search period end: 30 January 2020 00:00
Orbit: 962 x 1209 km, 28.3° (Epoch: 20 January)

Date Brightness Start Highest point End Pass type
(mag) Time Alt. Az. Time Alt. Az. Time Alt. Az.
20 Jan 9.9 04:09:45 10° SSW 04:14:29 17° SSE 04:19:15 10° SE visible
20 Jan 9.9 06:02:06 10° SW 06:07:31 21° S 06:12:57 10° SE visible
21 Jan 9.8 03:18:58 14° S 03:20:54 15° SSE 03:24:59 10° SE visible
21 Jan 9.8 05:08:29 10° SW 05:13:53 21° S 05:19:20 10° SE visible
22 Jan 10.1 02:28:43 12° SSE 02:28:43 12° SSE 02:30:16 10° SE visible
22 Jan 9.7 04:15:38 12° SSW 04:20:15 20° S 04:25:33 10° SE visible
23 Jan 9.6 03:25:19 18° S 03:26:39 18° S 03:31:36 10° SE visible
23 Jan 9.7 05:14:27 10° SW 05:19:41 20° S 05:24:59 10° SE visible
24 Jan 9.9 02:34:58 15° SSE 02:34:58 15° SSE 02:37:27 10° SE visible
24 Jan 9.6 04:21:52 13° SW 04:26:04 20° S 04:31:25 10° SE visible
25 Jan 9.4 03:31:29 19° S 03:32:27 20° S 03:37:41 10° SE visible
25 Jan 9.8 05:20:50 10° SW 05:25:28 17° SSW 05:30:11 10° SSE visible
26 Jan 9.8 02:41:06 16° SSE 02:41:06 16° SSE 02:43:48 10° SE visible
26 Jan 9.6 04:27:59 13° SW 04:31:52 18° S 04:36:52 10° SSE visible
27 Jan 9.4 03:37:35 19° S 03:38:16 19° S 03:43:21 10° SE visible
27 Jan 9.8 05:28:01 10° SW 05:31:13 13° SSW 05:34:29 10° S visible
28 Jan 9.7 02:47:11 16° SSE 02:47:11 16° SSE 02:49:42 10° SE visible
28 Jan 9.7 04:34:04 11° SW 04:37:40 15° SSW 04:41:42 10° SSE visible
29 Jan 9.5 03:43:41 17° SSW 03:44:06 17° S 03:48:33 10° SSE visible
